CST,Max TemperatureF,Mean TemperatureF,Min TemperatureF,Max Dew PointF,MeanDew PointF,Min DewpointF,Max Humidity, Mean Humidity, Min Humidity, Max Sea Level PressureIn, Mean Sea Level PressureIn, Min Sea Level PressureIn, Max VisibilityMiles, Mean VisibilityMiles, Min VisibilityMiles, Max Wind SpeedMPH, Mean Wind SpeedMPH, Max Gust SpeedMPH,PrecipitationIn, CloudCover, Events, WindDirDegrees
2014-1-1,50,34,19,36,26,18,96,72,38,30.39,30.25,30.01,10,10,6,10,3,,0.00,1,Rain,175
2014-1-2,45,33,21,45,31,10,100,87,63,30.41,30.08,29.87,10,7,2,24,10,33,0.21,8,Rain-Snow,319
2014-1-3,29,21,13,12,8,6,81,61,38,30.60,30.48,30.35,10,10,10,20,11,23,0.00,1,,29
2014-1-4,45,30,15,27,16,10,88,57,28,30.36,30.25,30.11,10,10,10,17,6,24,0.00,1,,177
2014-1-5,57,39,20,52,39,15,100,89,64,29.93,29.71,29.66,10,5,1,28,18,34,0.28,7,Rain-Snow,271
2014-1-6,19,11,3,13,-1,-5,78,63,49,30.63,30.52,30.42,10,10,8,20,10,22,0.00,3,Snow,313
2014-1-7,21,11,1,6,0,-4,83,63,42,30.69,30.60,30.51,10,10,10,10,3,,0.00,0,,188
2014-1-8,41,28,15,16,10,5,68,48,33,30.61,30.52,30.42,10,10,2,9,5,,0.00,1,,185
2014-1-9,44,38,32,40,30,14,100,74,29,30.52,30.38,30.28,10,10,7,7,3,,0.03,7,Rain,167
2014-1-10,55,50,44,52,47,41,100,86,77,30.25,30.06,29.84,10,9,3,17,10,21,0.00,7,,179
2014-1-11,55,54,50,56,47,32,100,79,44,29.90,29.75,29.68,10,8,1,20,8,26,0.08,5,Rain,279
2014-1-12,57,42,26,37,30,27,100,76,38,30.16,30.12,30.06,10,7,0,14,3,,0.00,0,Fog,191
2014-1-13,57,52,46,54,46,32,100,87,45,30.03,29.91,29.82,10,6,2,18,12,,0.00,8,Rain,192
2014-1-14,57,48,39,47,37,32,100,67,38,30.08,29.99,29.90,10,10,1,23,7,32,0.00,1,Fog,234
2014-1-15,36,30,24,26,19,16,75,62,51,30.24,30.17,30.10,10,10,10,15,9,,0.00,4,,339
2014-1-16,47,32,17,27,20,14,88,52,33,30.12,29.95,29.83,10,10,10,23,12,21,0.00,1,,207
2014-1-17,37,32,24,32,11,-36,81,50,4,30.21,30.07,29.96,10,10,6,28,15,30,0.00,6,Snow,303
2014-1-18,42,30,17,16,14,10,86,49,29,30.22,30.04,29.84,10,10,10,20,11,,0.00,3,,203
2014-1-19,46,40,35,32,28,25,87,61,43,30.14,30.09,30.04,10,10,10,18,12,,0.00,3,,269
2014-1-20,60,48,37,32,30,27,66,46,31,30.01,29.94,29.88,10,10,10,12,7,,0.00,0,,218
2014-1-21,37,28,19,32,16,9,81,70,63,30.26,30.11,29.90,10,10,8,31,20,41,0.00,8,Snow,340
2014-1-22,32,22,12,12,4,0,67,45,32,30.28,30.17,30.10,10,10,10,12,5,,0.00,5,,223
2014-1-23,21,16,12,12,0,-8,68,51,35,30.75,30.59,30.41,10,10,10,18,14,23,0.00,1,,359
2014-1-24,28,16,3,1,-1,-4,85,44,25,30.76,30.49,30.27,10,10,10,15,6,,0.00,0,,209
2014-1-25,46,39,32,23,15,9,43,39,35,29.98,29.90,29.84,10,10,10,22,17,,0.00,6,,270
2014-1-26,59,41,23,32,26,7,54,42,36,29.97,29.82,29.74,10,10,10,25,12,23,0.00,0,,212
2014-1-27,26,22,17,14,-1,-6,59,38,28,30.44,30.28,30.11,10,10,10,23,16,,0.00,1,,6
2014-1-28,17,14,12,1,-1,-4,57,50,41,30.48,30.41,30.34,10,10,10,14,11,,0.00,5,,3
2014-1-29,26,16,5,3,-2,-6,78,42,26,30.52,30.43,30.37,10,10,10,6,1,,0.00,0,,337
2014-1-30,42,25,8,5,0,-4,73,29,15,30.39,30.21,30.08,10,10,10,21,9,,0.00,0,,189
2014-1-31,50,44,37,32,20,-9,57,41,8,30.24,30.15,30.09,10,10,10,12,7,,0.00,6,,177